Home   Weather   Scarborough   Past weeks

Flag for Trinidad and Tobago Past Weather in Scarborough, Trinidad and Tobago — Yesterday and Last 2 Weeks

Now
88 °F

Scattered clouds.


Feels Like: 96 °F
Forecast: 79 / 86 °F
Wind: 16 mph from Southeast

Location: Crown Pt./ Scarborou

Current Time: Apr 28, 2017 at 2:30:32 pm

Latest Report: Apr 28, 2017 at 2:00 pm


Visibility: N/A

Pressure: 29.95 "Hg

Humidity: 62%

Dew Point: 73 °F

Location of ScarboroughLocation

Past Weather in Scarborough — Graph

°F

Scarborough Temperature Yesterday

Maximum temperature yesterday: 88 °F (at 12:00 pm)
Minimum temperature yesterday: 79 °F (at 2:00 am)
Average temperature yesterday: 83 °F

High & Low Weather Summary for the Past Weeks

 TemperatureHumidityPressure
High88 °F (Apr 17, 12:00 pm)100% (Apr 21, 10:00 am)30.01 "Hg (Apr 21, 10:00 am)
Low68 °F (Apr 21, 10:00 am)55% (Apr 18, 2:00 pm)29.83 "Hg (Apr 25, 4:00 am)
Average82 °F72%29.92 "Hg
* Reported Apr 13 1:00 pm — Apr 28 1:00 pm, Scarborough, Weather by CustomWeather, © 2017

Note: Actual official high and low records may vary slightly from our data, if they occured in-between our weather recording intervals... More about our weather records

Advertising

Scarborough Weather History for the Previous 24 Hours

Scroll right to see more
 ConditionsComfort  
Time TempWeatherWind HumidityBarometerVisibility
1:00 pm
Fri, Apr 28
88 °FPassing clouds.21 mph59%29.98 "HgN/A
12:00 pm86 °FPassing clouds.18 mph66%29.98 "HgN/A
11:00 am88 °FPassing clouds.21 mph59%29.98 "HgN/A
10:00 am86 °FPassing clouds.21 mph62%30.01 "HgN/A
9:00 am84 °FPassing clouds.14 mph66%29.98 "HgN/A
8:00 am84 °FPassing clouds.21 mph66%29.98 "HgN/A
7:00 am82 °FPassing clouds.16 mph70%29.95 "HgN/A
6:00 am81 °FPassing clouds.14 mph74%29.95 "HgN/A
5:00 am81 °FPassing clouds.13 mph74%29.95 "HgN/A
4:00 am81 °FPassing clouds.13 mph74%29.92 "HgN/A
3:00 am81 °FPassing clouds.13 mph74%29.92 "HgN/A
2:00 am81 °FPassing clouds.13 mph74%29.92 "HgN/A
1:00 am81 °FPassing clouds.12 mph70%29.95 "HgN/A
12:00 am81 °FPassing clouds.12 mph74%29.95 "HgN/A
11:00 pm
Thu, Apr 27
81 °FPassing clouds.12 mph70%29.95 "HgN/A
10:00 pm81 °FPassing clouds.10 mph70%29.95 "HgN/A
9:00 pm81 °FPassing clouds.14 mph70%29.95 "HgN/A
8:00 pm81 °FPassing clouds.14 mph74%29.92 "HgN/A
7:00 pm81 °FPassing clouds.18 mph74%29.89 "HgN/A
6:00 pm82 °FPassing clouds.20 mph70%29.89 "HgN/A
5:00 pm84 °FPassing clouds.20 mph62%29.89 "HgN/A
4:00 pm86 °FPassing clouds.18 mph62%29.89 "HgN/A
3:00 pm86 °FPassing clouds.17 mph62%29.89 "HgN/A
2:00 pm86 °FPassing clouds.18 mph62%29.89 "HgN/A
Weather by CustomWeather, © 2017

See weather overviewHow to use our weather pages